Location: Dürabuch
(48.2640°N, 11.2185°E)
Time: 20:59:22
(UTC+00:00)

COSMOS 2441 - Pass Details

Date: 23 May 2024
Orbit: 705 x 730 km, 98.2° (Epoch: 14 June)

Event Time Altitude Azimuth Distance (km) Brightness Sun altitude
Rises 01:28:31 0° 15° (NNE) 3,116 9.1 -14.6°
Reaches altitude 10° 01:30:48 10° 17° (NNE) 2,190 8.1 -14.4°
Maximum altitude 01:35:36 76° 103° (ESE) 731 4.4 -14.0°
Enters shadow 01:39:16 17° 188° (S) 1,740 5.8 -13.6°
